Location: Newark
(30.8531°N, 60.5961°E)
Time: 19:32:20
(UTC+00:00)

ISS - Visible Passes

Search period start: 16 July 2019 00:00
Search period end: 26 July 2019 00:00
Orbit: 409 x 418 km, 51.6° (Epoch: 17 July)

Date Brightness Start Highest point End Pass type
(mag) Time Alt. Az. Time Alt. Az. Time Alt. Az.
16 Jul -3.9 16:21:28 10° SW 16:24:47 71° SE 16:28:06 10° NE visible
16 Jul -0.2 18:00:44 10° NW 18:01:47 11° NNW 18:02:50 10° NNW visible
17 Jul -3.6 00:30:52 10° NW 00:34:10 76° NE 00:37:27 10° SE visible
17 Jul -3.1 15:32:34 10° SSW 15:35:36 32° SE 15:38:37 10° ENE visible
17 Jul -0.8 17:09:55 10° W 17:12:19 18° NW 17:14:43 10° N visible
17 Jul -2.1 23:41:47 10° NNW 23:44:52 35° NE 23:47:56 10° ESE visible
18 Jul -1.8 16:19:53 10° WSW 16:22:55 31° NW 16:25:57 10° NNE visible
18 Jul -1.0 22:52:58 10° NNW 22:55:29 20° NE 22:58:00 10° E visible
19 Jul -2.9 00:29:17 10° WNW 00:32:09 27° SW 00:34:59 10° S visible
19 Jul -3.2 15:30:16 10° SW 15:33:35 64° NW 15:36:54 10° NE visible
19 Jul -0.3 22:04:35 10° N 22:06:00 12° NNE 22:07:25 10° ENE visible
19 Jul -3.9 23:39:41 10° NW 23:42:57 60° SW 23:46:11 10° SSE visible
20 Jul -0.4 16:19:40 10° WNW 16:21:15 13° NNW 16:22:48 10° N visible
21 Jul -0.8 15:29:07 10° W 15:31:44 21° NW 15:34:22 10° NNE visible
